Fergus Falls, MN

4:11 AM CST on December 09, 2019 (GMT -0600)
Fergus Falls Municipal-Mickelson

Weather History for KFFM - October, 2019

Change the Weather History Date:

Saturday, October 5, 2019

  Actual Average Record
Temperature  
Mean Temperature 48 °F -  
Max Temperature 53 °F 61 °F 93 °F (1963)
Min Temperature 44 °F 38 °F 24 °F (1988)
Degree Days  
Heating Degree Days 16    
Moisture  
Dew Point 47 °F    
Average Humidity 95    
Maximum Humidity 100    
Minimum Humidity 82    
Precipitation  
Precipitation 0.09 in - - ()
Sea Level Pressure  
Sea Level Pressure 29.74 in    
Wind  
Wind Speed 14 mph ()    
Max Wind Speed 26 mph    
Max Gust Speed 33 mph    
Visibility 6.9 miles    
Events Rain , Thunderstorm    
Averages and records for this station are not official NWS values.
T = Trace of Precipitation, MM = Missing Value Source: Averaged Metar Reports

Daily Weather History Graph

Daily Weather History Graph

Search for Another Location

Airport or City:

Astronomy

Oct. 05, 2019 Rise Set
Actual Time 7:28 AM CDT 6:57 PM CDT
Civil Twilight 6:58 AM CDT 7:27 PM CDT
Nautical Twilight 6:23 AM CDT 8:01 PM CDT
Astronomical Twilight 5:48 AM CDT 8:36 PM CDT
Moon 3:13 PM CDT (10/5) No Moon Set
Length of Visible Light 12h 28m
Length of Day
11h 29m
Waxing Crescent, 50% of the Moon is Illuminated
Oct 5
Waxing Crescent
Oct 13
Full
Oct 21
Last Quarter
Oct 27
New
Nov 4
First Quarter

Hourly Weather History & Observations

Time (CDT) Temp. Windchill Dew Point Humidity Pressure Visibility Wind Dir Wind Speed Gust Speed Precip Events Conditions
12:18 AM 44.6 °F 37.8 °F 42.8 °F 93% 30.02 in 10.0 mi SE 15.0 mph 23.0 mph N/A   Overcast
12:36 AM 44.6 °F 37.4 °F 42.8 °F 93% 30.00 in 7.0 mi SE 16.1 mph 21.9 mph 0.01 in Rain , Thunderstorm Light Thunderstorms and Rain
12:55 AM 44.6 °F 37.8 °F 42.8 °F 93% 30.01 in 10.0 mi SE 15.0 mph - 0.01 in Thunderstorm Overcast
12:56 AM 44.6 °F 37.8 °F 42.8 °F 93% 30.01 in 10.0 mi SE 15.0 mph - N/A Thunderstorm Overcast
1:15 AM 44.6 °F 38.4 °F 42.8 °F 93% 30.00 in 5.0 mi SE 12.7 mph 19.6 mph 0.01 in Rain , Thunderstorm Light Thunderstorms and Rain
1:16 AM 44.6 °F 38.8 °F 42.8 °F 93% 30.00 in 5.0 mi SE 11.5 mph 19.6 mph 0.01 in Rain , Thunderstorm Light Thunderstorms and Rain
1:35 AM 44.6 °F 40.2 °F 42.8 °F 93% 30.00 in 10.0 mi ESE 8.1 mph - 0.01 in Rain , Thunderstorm Light Thunderstorms and Rain
1:39 AM 44.6 °F 39.2 °F 42.8 °F 93% 29.99 in 7.0 mi ESE 10.4 mph 16.1 mph 0.01 in Rain , Thunderstorm Thunderstorms and Rain
1:58 AM 44.6 °F 37.4 °F 42.8 °F 93% 29.98 in 3.0 mi SE 16.1 mph 21.9 mph N/A Rain Light Rain
2:15 AM 44.6 °F 37.4 °F 42.8 °F 93% 29.98 in 7.0 mi SE 16.1 mph 21.9 mph 0.01 in Rain , Thunderstorm Light Thunderstorms and Rain
2:35 AM 44.6 °F 38.1 °F 42.8 °F 93% 29.97 in 7.0 mi SE 13.8 mph - 0.01 in Rain Light Rain
2:36 AM 44.6 °F 38.4 °F 42.8 °F 93% 29.97 in 7.0 mi SE 12.7 mph - 0.01 in Rain Light Rain
2:55 AM 44.6 °F 38.1 °F 44.6 °F 100% 29.96 in 3.0 mi SE 13.8 mph - 0.01 in Rain , Thunderstorm Rain
2:56 AM 44.6 °F 38.4 °F 44.6 °F 100% 29.96 in 3.0 mi SE 12.7 mph - N/A Rain , Thunderstorm Rain
3:18 AM 44.6 °F 37.8 °F 44.6 °F 100% 29.94 in 3.0 mi SE 15.0 mph 20.7 mph 0.01 in Rain Light Rain
3:35 AM 46.4 °F 39.8 °F 44.6 °F 93% 29.92 in 7.0 mi SE 16.1 mph 20.7 mph 0.01 in   Overcast
3:55 AM 46.4 °F 40.4 °F 44.6 °F 93% 29.91 in 7.0 mi SE 13.8 mph - N/A Rain Light Rain
4:15 AM 46.4 °F 39.8 °F 44.6 °F 93% 29.89 in 7.0 mi SE 16.1 mph 21.9 mph 0.01 in Rain Rain
4:19 AM 46.4 °F 39.8 °F 44.6 °F 93% 29.88 in 7.0 mi SE 16.1 mph 21.9 mph 0.01 in Rain Rain
4:37 AM 46.4 °F 39.0 °F 44.6 °F 93% 29.81 in 7.0 mi ESE 19.6 mph 26.5 mph 0.01 in Rain Light Rain
4:56 AM 46.4 °F 38.7 °F 44.6 °F 93% 29.78 in 10.0 mi ESE 20.7 mph 26.5 mph N/A   Overcast
5:15 AM 46.4 °F 39.5 °F 44.6 °F 93% 29.86 in 10.0 mi SSE 17.3 mph 23.0 mph N/A   Overcast
5:16 AM 46.4 °F 39.5 °F 44.6 °F 93% 29.86 in 10.0 mi SSE 17.3 mph 23.0 mph N/A   Overcast
5:35 AM 46.4 °F 39.0 °F 44.6 °F 93% 29.86 in 10.0 mi SSE 19.6 mph 24.2 mph N/A   Overcast
5:36 AM 46.4 °F 39.5 °F 44.6 °F 93% 29.86 in 10.0 mi SSE 17.3 mph 24.2 mph N/A   Overcast
5:58 AM 46.4 °F 39.2 °F 44.6 °F 93% 29.84 in 5.0 mi SSE 18.4 mph 25.3 mph N/A   Overcast
6:16 AM 46.4 °F 40.1 °F 46.4 °F 100% 29.79 in 3.0 mi SE 15.0 mph 23.0 mph N/A   Overcast
6:35 AM 48.2 °F - 46.4 °F 93% 29.81 in 7.0 mi SSE 16.1 mph 19.6 mph N/A   Overcast
6:55 AM 48.2 °F - 46.4 °F 93% 29.77 in 10.0 mi SSE 13.8 mph - N/A   Overcast
6:56 AM 48.2 °F - 46.4 °F 93% 29.77 in 10.0 mi SSE 12.7 mph - N/A   Overcast
7:15 AM 48.2 °F - 46.4 °F 93% 29.76 in 10.0 mi SSE 15.0 mph 19.6 mph N/A   Overcast
7:19 AM 48.2 °F - 46.4 °F 93% 29.75 in 10.0 mi SSE 15.0 mph 19.6 mph N/A   Overcast
7:38 AM 48.2 °F - 46.4 °F 93% 29.75 in 10.0 mi SSE 17.3 mph 21.9 mph N/A   Overcast
7:55 AM 48.2 °F - 46.4 °F 93% 29.74 in 10.0 mi SSE 13.8 mph - N/A   Overcast
8:15 AM 48.2 °F - 46.4 °F 93% 29.73 in 10.0 mi SSE 17.3 mph 23.0 mph N/A   Overcast
8:16 AM 48.2 °F - 46.4 °F 93% 29.73 in 10.0 mi SSE 16.1 mph 23.0 mph N/A   Overcast
8:35 AM 48.2 °F - 46.4 °F 93% 29.72 in 10.0 mi SSE 17.3 mph 23.0 mph N/A   Overcast
8:36 AM 48.2 °F - 46.4 °F 93% 29.72 in 10.0 mi SSE 15.0 mph 23.0 mph N/A   Overcast
8:58 AM 48.2 °F - 46.4 °F 93% 29.70 in 10.0 mi SSE 13.8 mph 21.9 mph N/A   Overcast
9:17 AM 48.2 °F - 46.4 °F 93% 29.70 in 10.0 mi SSE 15.0 mph 21.9 mph N/A   Overcast
9:35 AM 48.2 °F - 48.2 °F 100% 29.69 in 7.0 mi SSE 17.3 mph 21.9 mph N/A   Overcast
9:36 AM 48.2 °F - 48.2 °F 100% 29.69 in 7.0 mi SSE 17.3 mph 21.9 mph N/A   Overcast
9:55 AM 48.2 °F - 48.2 °F 100% 29.68 in 3.0 mi South 12.7 mph - N/A   Overcast
9:56 AM 48.2 °F - 48.2 °F 100% 29.68 in 3.0 mi South 15.0 mph 19.6 mph N/A   Overcast
10:15 AM 48.2 °F - 48.2 °F 100% 29.66 in 3.0 mi South 15.0 mph 19.6 mph N/A   Overcast
10:19 AM 48.2 °F - 48.2 °F 100% 29.66 in 3.0 mi South 13.8 mph 20.7 mph N/A   Overcast
10:37 AM 50.0 °F - 48.2 °F 94% 29.65 in 4.0 mi South 15.0 mph - N/A   Overcast
10:56 AM 50.0 °F - 48.2 °F 94% 29.64 in 3.0 mi South 13.8 mph 20.7 mph N/A   Overcast
11:15 AM 50.0 °F - 50.0 °F 100% 29.63 in 3.0 mi South 13.8 mph - N/A   Overcast
11:16 AM 50.0 °F - 50.0 °F 100% 29.63 in 3.0 mi South 13.8 mph - N/A   Overcast
11:38 AM 50.0 °F - 50.0 °F 100% 29.61 in 2.0 mi South 12.7 mph - N/A   Overcast
11:56 AM 51.8 °F - 51.8 °F 100% 29.60 in 2.0 mi South 11.5 mph - N/A   Overcast
12:16 PM 51.8 °F - 51.8 °F 100% 29.59 in 2.5 mi South 11.5 mph - N/A Rain Rain
12:35 PM 51.8 °F - 51.8 °F 100% 29.58 in 7.0 mi South 10.4 mph - 0.01 in Rain Light Rain
12:36 PM 51.8 °F - 51.8 °F 100% 29.58 in 7.0 mi South 10.4 mph - 0.01 in Rain Light Rain
12:55 PM 51.8 °F - 51.8 °F 100% 29.58 in 10.0 mi South 10.4 mph - 0.01 in   Overcast
12:59 PM 51.8 °F - 51.8 °F 100% 29.58 in 10.0 mi South 10.4 mph - N/A   Overcast
1:16 PM 51.8 °F - 51.8 °F 100% 29.57 in 1.2 mi South 12.7 mph - N/A   Overcast
1:36 PM 51.8 °F - 51.8 °F 100% 29.56 in 1.2 mi SSW 9.2 mph - N/A   Overcast
1:55 PM 51.8 °F - 51.8 °F 100% 29.55 in 1.5 mi SW 9.2 mph - N/A   Overcast
1:56 PM 51.8 °F - 51.8 °F 100% 29.55 in 1.5 mi SW 9.2 mph - N/A   Overcast
2:15 PM 53.6 °F - 53.6 °F 100% 29.54 in 1.5 mi West 6.9 mph - 0.01 in   Light Drizzle
2:19 PM 53.6 °F - 53.6 °F 100% 29.55 in 1.5 mi West 10.4 mph - 0.01 in   Overcast
2:38 PM 51.8 °F - 51.8 °F 100% 29.55 in 5.0 mi West 17.3 mph 21.9 mph 0.01 in   Overcast
2:56 PM 51.8 °F - 50.0 °F 94% 29.56 in 1.5 mi West 19.6 mph 28.8 mph N/A   Overcast
3:15 PM 50.0 °F - 48.2 °F 94% 29.57 in 3.0 mi West 18.4 mph 27.6 mph N/A   Light Drizzle
3:16 PM 50.0 °F - 48.2 °F 94% 29.57 in 4.0 mi West 18.4 mph 26.5 mph N/A   Light Drizzle
3:35 PM 50.0 °F - 48.2 °F 94% 29.58 in 5.0 mi WNW 23.0 mph 28.8 mph 0.01 in   Overcast
3:36 PM 50.0 °F - 48.2 °F 94% 29.58 in 5.0 mi WNW 18.4 mph 28.8 mph 0.01 in   Overcast
3:58 PM 50.0 °F - 48.2 °F 94% 29.59 in 5.0 mi WNW 23.0 mph 29.9 mph N/A   Overcast
4:16 PM 48.2 °F - 48.2 °F 100% 29.61 in 4.0 mi WNW 26.5 mph 32.2 mph N/A   Overcast
4:36 PM 48.2 °F - 48.2 °F 100% 29.62 in 2.5 mi WNW 16.1 mph 21.9 mph N/A   Overcast
4:55 PM 48.2 °F - 46.4 °F 93% 29.63 in 2.0 mi WNW 24.2 mph 33.4 mph N/A   Overcast
4:56 PM 48.2 °F - 46.4 °F 93% 29.63 in 2.0 mi WNW 20.7 mph 33.4 mph N/A   Overcast
5:15 PM 46.4 °F 38.1 °F 46.4 °F 100% 29.65 in 10.0 mi WNW 24.2 mph 29.9 mph N/A   Overcast
5:37 PM 46.4 °F 38.1 °F 46.4 °F 100% 29.67 in 10.0 mi WNW 24.2 mph 32.2 mph N/A   Overcast
5:56 PM 46.4 °F 38.7 °F 44.6 °F 93% 29.68 in 7.0 mi WNW 20.7 mph 27.6 mph N/A   Overcast
6:15 PM 46.4 °F 39.8 °F 44.6 °F 93% 29.70 in 2.0 mi WNW 16.1 mph 21.9 mph 0.01 in Rain Light Rain
6:16 PM 46.4 °F 39.5 °F 44.6 °F 93% 29.70 in 2.0 mi WNW 17.3 mph 21.9 mph 0.01 in Rain Light Rain
6:35 PM 46.4 °F 39.5 °F 44.6 °F 93% 29.70 in 7.0 mi West 17.3 mph - 0.01 in   Light Drizzle
6:36 PM 46.4 °F 39.8 °F 44.6 °F 93% 29.70 in 10.0 mi WNW 16.1 mph - 0.01 in   Overcast
6:58 PM 46.4 °F 40.1 °F 46.4 °F 100% 29.71 in 10.0 mi West 15.0 mph - N/A   Light Drizzle
7:16 PM 46.4 °F 39.8 °F 46.4 °F 100% 29.72 in 10.0 mi WNW 16.1 mph 23.0 mph N/A   Overcast
7:35 PM 46.4 °F 40.1 °F 46.4 °F 100% 29.72 in 10.0 mi West 15.0 mph - N/A   Overcast
7:36 PM 46.4 °F 40.1 °F 46.4 °F 100% 29.73 in 10.0 mi West 15.0 mph - N/A   Overcast
7:55 PM 48.2 °F - 46.4 °F 93% 29.73 in 10.0 mi West 13.8 mph 20.7 mph N/A   Overcast
7:56 PM 48.2 °F - 46.4 °F 93% 29.73 in 10.0 mi West 12.7 mph 20.7 mph N/A   Overcast
8:15 PM 48.2 °F - 46.4 °F 93% 29.74 in 10.0 mi West 11.5 mph - N/A   Overcast
8:19 PM 48.2 °F - 46.4 °F 93% 29.74 in 10.0 mi West 11.5 mph - N/A   Overcast
8:36 PM 46.4 °F 41.5 °F 46.4 °F 100% 29.74 in 10.0 mi WNW 10.4 mph - N/A   Scattered Clouds
8:56 PM 46.4 °F 41.9 °F 44.6 °F 93% 29.74 in 10.0 mi West 9.2 mph - N/A   Scattered Clouds
9:15 PM 46.4 °F 42.4 °F 44.6 °F 93% 29.74 in 10.0 mi West 8.1 mph - N/A   Scattered Clouds
9:16 PM 46.4 °F 42.4 °F 44.6 °F 93% 29.74 in 10.0 mi West 8.1 mph - N/A   Scattered Clouds
9:35 PM 46.4 °F 41.9 °F 44.6 °F 93% 29.75 in 10.0 mi West 9.2 mph - N/A   Scattered Clouds
9:57 PM 46.4 °F 41.9 °F 44.6 °F 93% 29.75 in 10.0 mi West 9.2 mph - N/A   Mostly Cloudy
10:16 PM 48.2 °F - 46.4 °F 93% 29.75 in 10.0 mi West 6.9 mph - N/A   Overcast
10:35 PM 48.2 °F - 46.4 °F 93% 29.76 in 10.0 mi West 9.2 mph - N/A   Overcast
10:36 PM 48.2 °F - 46.4 °F 93% 29.76 in 10.0 mi West 8.1 mph - N/A   Overcast
10:55 PM 48.2 °F - 44.6 °F 87% 29.76 in 10.0 mi West 9.2 mph - N/A   Mostly Cloudy
10:56 PM 48.2 °F - 44.6 °F 87% 29.76 in 10.0 mi West 9.2 mph - N/A   Mostly Cloudy
11:18 PM 48.2 °F - 44.6 °F 87% 29.75 in 10.0 mi West 9.2 mph - N/A   Overcast
11:36 PM 48.2 °F - 44.6 °F 87% 29.76 in 10.0 mi West 10.4 mph - N/A   Mostly Cloudy
11:56 PM 48.2 °F - 42.8 °F 82% 29.75 in 10.0 mi West 11.5 mph - N/A   Mostly Cloudy